User: anonymous   Login
Location: Lombard
(41.8800°N, 88.0080°W)
Time: 13:25:14
(UTC-05:00)
Language:

QB50P2 - Orbit

View from above orbital plane
View from above orbital plane
View from above satellite
View from above satellite

Ground track
Ground track

The orbit data is extracted from the following two-line orbital elements,

1 40032U 14033Y   22137.05247181  .00002920  00000-0  31009-3 0  9992
2 40032  97.9373  69.7120 0012272 151.0176 209.1725 14.89776548429469
Epoch (UTC): 17 May 2022 01:15:33
Eccentricity: 0.0012272
inclination: 97.9373°
perigee height: 590 km
apogee height: 607 km
right ascension of ascending node: 69.7120°
argument of perigee: 151.0176°
revolutions per day: 14.89776548
mean anomaly at epoch: 209.1725°
orbit number at epoch: 42946

The dashed part of the orbit path shows where the satellite is in the earth's shadow,  

DLR